Stations météo

Publicité
Bezier-Vias, France (7638): Température de l'air & dewpoint: 10.07.2018 14:00:00 - 16.07.2018 14:00:00 (CEST)Bezier-Vias, France (7638): Vitesse du vent & gusts: 10.07.2018 14:00:00 - 16.07.2018 14:00:00 (CEST)Bezier-Vias, France (7638): Direction du vent: 10.07.2018 14:00:00 - 16.07.2018 14:00:00 (CEST)Bezier-Vias, France (7638): reduced air pressure: 10.07.2018 14:00:00 - 16.07.2018 14:00:00 (CEST)Bezier-Vias, France (7638): visibility: 10.07.2018 14:00:00 - 16.07.2018 14:00:00 (CEST)Bezier-Vias, France (7638): Quantités de précipitations: 10.07.2018 14:00:00 - 16.07.2018 14:00:00 (CEST)
Date & Time tt [°C] td [°C] ff [km/h] ff [knt] fx [km/h] fx [knt] dd ppp [hPa] vv [km] rr [mm]
16.07.2018 14:00:00 20,1 18,6 13 7 31 17 W 1012,7 50 0,4
16.07.2018 13:00:00 19,3 17,8 19 11 53 28 W 1012,2 14 2,9
16.07.2018 12:00:00 18,7 16,8 31 17 50 27 NW 1012,6 9 2,2
16.07.2018 11:00:00 20,5 18,6 20 11 31 17 WNW 1011,9 3,6 2,2
16.07.2018 10:00:00 22,1 18,1 11 6 27 14 NW 1011,5 46 0,0
16.07.2018 09:00:00 21,2 18,8 9 5 39 21 SW 1011,2 20 2,4
16.07.2018 08:00:00 21,4 17,6 10 5 16 9 NW 1011,2 14 0,2
16.07.2018 07:00:00 20,4 17,6 9 5 16 9 NW 1011,6 33 0,0
16.07.2018 06:00:00 20,2 17,6 7 4 9 5 NNW 1011,5 32 0,0
16.07.2018 05:00:00 20,6 18,0 5 3 20 11 NW 1012,3 31 0,0
16.07.2018 04:00:00 21,1 19,4 10 5 14 8 NW 1012,6 14 0,0
16.07.2018 03:00:00 22,1 20,2 6 4 19 10 E 1012,9 12 0,0
16.07.2018 02:00:00 21,7 19,6 9 5 16 9 E 1013,3 13 0,0
16.07.2018 01:00:00 22,3 20,2 8 4 13 7 WNW 1013,7 13 0,0
16.07.2018 00:00:00 22,5 19,9 4 2 8 5 ENE 1012,8 16 0,0
15.07.2018 23:00:00 23,3 20,1 5 3 6 4 ENE 1012,9 19 0,0
15.07.2018 22:00:00 24,3 20,8 4 2 9 5 S 1012,5 20 0,0
15.07.2018 21:00:00 24,9 20,4 7 4 17 9 S 1012,1 27 0,0
15.07.2018 20:00:00 26,1 19,7 13 7 19 10 S 1012,1 37 0,0
15.07.2018 19:00:00 27,3 18,9 12 7 24 13 SSE 1012,3 28 0,0
15.07.2018 18:00:00 29,7 13,5 13 7 25 13 S 1012,6 28 0,0
15.07.2018 17:00:00 30,2 12,1 10 5 20 11 SSE 1012,9 30 0,0
15.07.2018 16:00:00 29,6 13,4 13 7 27 14 S 1013,5 30 0,0
15.07.2018 15:00:00 29,0 14,0 13 7 25 13 S 1014,0 31 0,0
15.07.2018 14:00:00 28,4 14,6 15 8 24 13 S 1014,6 41 0,0
15.07.2018 13:00:00 27,8 14,4 13 7 24 13 S 1015,2 48 0,0
15.07.2018 12:00:00 27,4 16,4 11 6 24 13 SSW 1015,6 53 0,0
15.07.2018 11:00:00 27,1 15,1 11 6 21 11 S 1015,3 58 0,0
15.07.2018 10:00:00 26,7 14,1 5 3 14 7 SSW 1015,5 60 0,0
15.07.2018 09:00:00 24,7 15,3 6 3 16 8 W 1015,3 35 0,0
15.07.2018 08:00:00 23,3 15,4 9 5 13 7 WNW 1015,0 53 0,0
15.07.2018 07:00:00 21,6 15,4 2 1 21 11 SW 1014,6 60 0,0
15.07.2018 06:00:00 22,7 15,3 13 7 32 18 NE 1014,5 60 0,0
15.07.2018 05:00:00 21,2 15,7 13 7 20 11 NNE 1014,9 38 0,0
15.07.2018 04:00:00 21,1 15,9 14 8 25 13 W 1015,8 32 0,0
15.07.2018 03:00:00 20,7 15,0 6 4 9 5 NNE 1014,7 41 0,0
15.07.2018 02:00:00 20,7 15,0 4 2 7 4 NNE 1014,6 36 0,0
15.07.2018 01:00:00 21,9 14,5 0 0 5 3 N 1015,1 14 0,0
15.07.2018 00:00:00 21,9 15,0 3 1 6 3 SW 1014,9 24 0,0
14.07.2018 23:00:00 23,9 15,4 3 1 8 4 SSW 1015,0 44 0,0
14.07.2018 22:00:00 24,9 15,8 3 1 6 4 SSW 1014,5 49 0,0
14.07.2018 21:00:00 26,2 16,7 5 3 19 10 SW 1014,1 52 0,0
14.07.2018 20:00:00 27,3 16,9 10 5 18 10 SSW 1014,1 41 0,0
14.07.2018 19:00:00 28,0 16,6 12 6 23 13 S 1014,5 25 0,0
14.07.2018 18:00:00 28,9 15,8 14 7 24 13 S 1014,8 20 0,0
14.07.2018 17:00:00 29,6 15,0 14 8 27 14 S 1015,0 26 0,0
14.07.2018 16:00:00 30,2 13,0 16 9 26 14 SSE 1015,1 31 0,0
14.07.2018 15:00:00 31,0 12,4 15 8 27 14 SSE 1015,4 31 0,0
14.07.2018 14:00:00 29,7 15,8 16 9 28 15 SSE 1015,8 34 0,0
14.07.2018 13:00:00 30,3 16,0 16 9 28 15 S 1016,0 41 0,0
14.07.2018 12:00:00 31,3 15,7 6 4 17 9 W 1016,2 44 0,0
14.07.2018 11:00:00 29,6 13,4 5 3 18 10 NNE 1016,5 58 0,0
14.07.2018 10:00:00 27,5 15,8 5 3 13 7 NW 1016,6 54 0,0
14.07.2018 09:00:00 24,8 17,0 4 2 16 9 NNW 1016,8 47 0,0
14.07.2018 08:00:00 23,3 16,8 6 3 14 7 NNW 1016,8 43 0,0
14.07.2018 07:00:00 22,7 16,0 9 5 16 9 NNW 1016,5 53 0,0
14.07.2018 06:00:00 22,3 15,6 3 2 8 4 WSW 1016,3 47 0,0
14.07.2018 05:00:00 22,1 14,0 4 2 13 7 SSW 1016,7 51 0,0
14.07.2018 04:00:00 21,7 12,8 9 5 15 8 NNE 1016,5 52 0,0
14.07.2018 03:00:00 21,8 12,6 10 5 16 8 NNE 1017,0 52 0,0
14.07.2018 02:00:00 22,3 13,9 8 4 13 7 WSW 1017,9 60 0,0
14.07.2018 01:00:00 22,8 13,6 10 6 13 7 N 1016,6 60 0,0
14.07.2018 00:00:00 23,6 14,9 5 3 8 4 ESE 1016,7 60 0,0
13.07.2018 23:00:00 23,8 13,9 4 2 9 5 NNE 1016,5 60 0,0
13.07.2018 22:00:00 24,7 15,6 5 3 16 9 SW 1016,7 60 0,0
13.07.2018 21:00:00 25,7 14,2 6 4 22 12 SSW 1016,2 60 0,0
13.07.2018 20:00:00 27,4 13,0 12 6 24 13 SW 1016,1 60 0,0
13.07.2018 19:00:00 29,7 8,7 11 6 21 11 S 1015,7 31 0,0
13.07.2018 18:00:00 30,0 10,0 14 7 32 17 S 1016,0 23 0,0
13.07.2018 17:00:00 30,0 9,5 16 9 28 15 S 1016,5 26 0,0
13.07.2018 16:00:00 30,4 9,3 19 10 31 17 S 1017,0 20 0,0
13.07.2018 15:00:00 30,0 9,0 18 10 29 16 SSE 1017,2 33 0,0
13.07.2018 14:00:00 29,8 8,8 18 10 31 17 S 1017,4 39 0,0
13.07.2018 13:00:00 30,5 9,9 15 8 24 13 S 1017,5 57 0,0
13.07.2018 12:00:00 30,0 10,0 7 4 21 12 WSW 1017,7 47 0,0
13.07.2018 11:00:00 29,0 10,2 5 3 11 6 SE 1017,7 35 0,0
13.07.2018 10:00:00 27,2 11,6 4 2 13 7 SW 1017,7 51 0,0
13.07.2018 09:00:00 24,7 12,3 6 4 14 7 NNW 1017,8 41 0,0
13.07.2018 08:00:00 21,1 15,9 4 2 7 4 WNW 1017,4 16 0,0
13.07.2018 07:00:00 18,3 15,0 6 3 9 5 WSW 1017,2 29 0,0
13.07.2018 06:00:00 18,1 14,8 3 2 8 4 NW 1016,9 46 0,0
13.07.2018 05:00:00 18,1 15,0 4 2 8 5 WNW 1016,7 31 0,0
13.07.2018 04:00:00 18,8 15,3 4 2 6 3 WNW 1017,1 34 0,0
13.07.2018 03:00:00 20,0 16,2 3 2 10 5 SW 1017,0 34 0,0
13.07.2018 02:00:00 20,1 16,3 5 3 11 6 W 1017,0 36 0,0
13.07.2018 01:00:00 20,6 16,8 9 5 10 5 NW 1016,7 37 0,0
13.07.2018 00:00:00 21,7 17,5 5 3 8 4 SSW 1016,7 20 0,0
12.07.2018 23:00:00 22,3 17,2 4 2 8 5 NNE 1016,0 42 0,0
12.07.2018 22:00:00 24,1 16,9 5 3 10 5 NE 1015,4 55 0,0
12.07.2018 21:00:00 25,2 16,9 9 5 11 6 E 1015,0 56 0,0
12.07.2018 20:00:00 25,0 16,7 7 4 34 18 WSW 1014,8 59 0,0
12.07.2018 19:00:00 24,3 16,0 19 10 44 24 SSW 1015,1 54 0,0
12.07.2018 18:00:00 26,6 12,6 25 14 41 22 SSW 1015,1 20 0,0
12.07.2018 17:00:00 26,6 14,0 20 11 34 19 S 1015,0 26 0,0
12.07.2018 16:00:00 27,3 12,5 20 11 29 16 S 1015,0 31 0,0
12.07.2018 15:00:00 27,4 10,6 16 9 28 15 S 1015,2 38 0,0
12.07.2018 14:00:00 26,7 10,0 17 9 28 15 S 1015,6 49 0,0
12.07.2018 13:00:00 27,8 10,0 16 8 27 14 S 1015,7 60 0,0
12.07.2018 12:00:00 26,3 11,6 11 6 22 12 SSW 1016,0 60 0,0
12.07.2018 11:00:00 25,6 10,6 7 4 19 10 SW 1015,7 54 0,0
12.07.2018 10:00:00 25,0 12,2 8 4 17 9 W 1015,8 54 0,0
12.07.2018 09:00:00 23,3 12,0 8 5 15 8 SW 1015,7 41 0,0
12.07.2018 08:00:00 21,3 11,9 3 2 7 4 NW 1015,1 41 0,0
12.07.2018 07:00:00 17,9 11,9 2 1 4 2 NNW 1015,0 55 0,0
12.07.2018 06:00:00 17,6 12,1 2 1 7 4 NE 1014,7 59 0,0
12.07.2018 05:00:00 18,4 12,2 4 2 8 4 WNW 1014,5 60 0,0
12.07.2018 04:00:00 19,8 12,3 5 3 10 5 NNE 1014,2 60 0,0
12.07.2018 03:00:00 21,8 12,4 8 4 17 9 ENE 1013,9 60 0,0
12.07.2018 02:00:00 22,6 11,6 6 4 16 9 E 1013,6 60 0,0
12.07.2018 01:00:00 22,5 8,2 12 6 21 11 ENE 1013,8 60 0,0
12.07.2018 00:00:00 21,9 7,3 11 6 16 9 ENE 1014,2 60 0,0
11.07.2018 23:00:00 23,1 5,9 10 5 20 11 NW 1014,0 60 0,0
11.07.2018 22:00:00 26,4 4,8 16 9 25 14 NW 1013,2 60 0,0
11.07.2018 21:00:00 28,4 4,6 17 9 34 19 NNW 1012,5 32 0,0
11.07.2018 20:00:00 30,2 4,7 22 12 38 20 NNW 1012,0 19 0,0
11.07.2018 19:00:00 31,2 5,6 22 12 36 19 NNW 1011,8 18 0,0
11.07.2018 18:00:00 31,9 4,6 23 12 46 25 NNW 1011,7 19 0,0
11.07.2018 17:00:00 32,4 6,6 21 11 45 24 NW 1011,8 23 0,0
11.07.2018 16:00:00 32,1 7,7 23 12 40 21 NW 1011,9 26 0,0
11.07.2018 15:00:00 32,2 4,9 21 11 37 20 WNW 1012,3 30 0,0
11.07.2018 14:00:00 31,0 3,9 23 12 39 21 NW 1012,6 29 0,0
11.07.2018 13:00:00 30,0 7,8 22 12 40 22 WNW 1013,0 36 0,0
11.07.2018 12:00:00 28,9 9,1 23 12 46 25 NW 1013,4 42 0,0
11.07.2018 11:00:00 27,8 10,0 23 12 37 20 NW 1013,6 44 0,0
11.07.2018 10:00:00 25,7 12,5 13 7 24 13 WNW 1014,3 52 0,0
11.07.2018 09:00:00 24,1 13,6 14 8 21 11 W 1014,6 58 0,0
11.07.2018 08:00:00 21,9 13,8 14 7 22 12 W 1014,6 53 0,0
11.07.2018 07:00:00 18,7 13,1 8 4 16 9 W 1014,4 43 0,0
11.07.2018 06:00:00 19,3 12,6 7 4 13 7 SW 1014,2 57 0,0
11.07.2018 05:00:00 18,8 12,5 9 5 14 8 W 1014,0 60 0,0
11.07.2018 04:00:00 20,7 13,2 11 6 19 10 NW 1014,1 60 0,0
11.07.2018 03:00:00 21,7 12,5 10 5 29 16 W 1014,1 60 0,0
11.07.2018 02:00:00 23,8 12,7 17 9 25 13 NW 1014,2 60 0,0
11.07.2018 01:00:00 24,9 12,5 18 10 34 18 WNW 1014,3 20 0,0
11.07.2018 00:00:00 25,7 12,5 15 8 27 15 W 1014,2 60 0,0
10.07.2018 23:00:00 26,5 12,5 18 10 27 14 W 1014,0 60 0,0
10.07.2018 22:00:00 27,1 11,6 13 7 29 15 W 1013,5 60 0,0
10.07.2018 21:00:00 29,4 10,5 16 9 43 23 NW 1012,9 35 0,0
10.07.2018 20:00:00 31,2 10,0 30 16 42 23 NW 1012,5 16 0,0
10.07.2018 19:00:00 32,4 9,8 27 14 48 26 NW 1012,5 15 0,0
10.07.2018 18:00:00 33,0 10,9 26 14 47 26 WNW 1012,8 17 0,0
10.07.2018 17:00:00 33,3 10,6 29 15 44 24 NW 1012,9 22 0,0
10.07.2018 16:00:00 34,0 11,2 25 13 41 22 W 1013,1 29 0,0
10.07.2018 15:00:00 32,9 10,3 22 12 45 24 NW 1013,4 40 0,0
10.07.2018 14:00:00 32,3 10,3 16 9 37 20 NW 1013,9 45 0,0

tt = Température de l'air
td = dewpoint
ff = Vitesse du vent
fx = gusts
dd = Direction du vent
ppp = reduced air pressure
vv = visibility
rr = Quantités de précipitations

stations d'obs. à proximité